Location: Los Ranchitos
(37.9930°N, 122.5425°W)
Time: 08:50:55
(UTC+00:00)

USA 116 - Pass Details

Date: 21 September 2020
Orbit: 405 x 834 km, 97.9° (Epoch: 18 November)

Event Time Altitude Azimuth Distance (km) Brightness Sun altitude
Rises 02:48:31 0° 14° (NNE) 2,517 7.0 -8.6°
Reaches altitude 10° 02:50:28 10° 16° (NNE) 1,685 6.1 -8.9°
Maximum altitude 02:54:06 77° 103° (ESE) 549 3.6 -9.6°
Drops below altitude 10° 02:58:10 10° 189° (S) 1,892 6.5 -10.4°
Sets 03:00:27 0° 191° (S) 2,860 7.4 -10.9°
